GW2953 Weather Reports


Display with metric or nautical units.
time (UTC)temp
F
wind
direction
speed
MPH
gust
MPH
rain 1hr
in
rain 24hr
in
rain mn
in
humidity
%
barometer
mb
20260902150157 56 169 4.0 9.0 0.00 0.01 0.01 80 1015.8
20260902145656 56 256 4.0 7.0 0.00 0.01 0.01 79 1015.7
20260902145156 56 235 4.0 9.0 0.00 0.01 0.01 80 1015.5
20260902144652 56 298 2.0 6.0 0.00 0.01 0.01 80 1015.3
20260902144148 56 183 4.0 9.0 0.00 0.01 0.01 80 1015.5
20260902143647 56 287 5.0 10.0 0.00 0.01 0.01 81 1015.3
20260902143143 56 262 3.0 9.0 0.00 0.01 0.01 81 1015.1
20260902142638 56 251 0.0 4.0 0.00 0.01 0.01 80 1015.2
20260902142134 56 290 5.0 9.0 0.00 0.01 0.01 81 1015.2
20260902141633 56 281 4.0 11.0 0.00 0.01 0.01 82 1015.3
20260902141129 55 269 10.0 11.0 0.00 0.01 0.01 83 1015.3
20260902140624 55 263 5.0 9.0 0.00 0.01 0.01 83 1015.1
20260902140119 55 252 5.0 9.0 0.00 0.01 0.01 83 1015.2
20260902135619 56 243 5.0 10.0 0.00 0.01 0.01 81 1015.1
20260902135114 56 278 5.0 10.0 0.00 0.01 0.01 80 1015.0
20260902134609 56 255 4.0 6.0 0.00 0.01 0.01 80 1015.3
20260902134104 56 191 2.0 4.0 0.00 0.01 0.01 80 1015.1
20260902133559 56 58 5.0 6.0 0.00 0.01 0.01 80 1015.1
20260902133059 56 97 4.0 9.0 0.00 0.01 0.01 80 1015.3
20260902132554 56 160 10.0 13.0 0.00 0.01 0.01 80 1015.3
20260902132049 56 88 4.0 15.0 0.00 0.01 0.01 80 1015.0
20260902131546 56 94 5.0 24.0 0.00 0.01 0.01 80 1015.3
20260902131046 56 331 4.0 9.0 0.00 0.01 0.01 82 1015.2
20260902130541 56 99 4.0 12.0 0.00 0.01 0.01 81 1015.4
20260902130031 56 122 7.0 14.0 0.00 0.01 0.01 82 1015.3
20260902125527 56 104 10.0 15.0 0.00 0.01 0.01 82 1015.2
20260902125022 56 80 2.0 16.0 0.00 0.01 0.01 82 1015.2
20260902124518 56 177 2.0 17.0 0.02 0.01 0.01 81 1015.2
20260902124013 56 177 6.0 14.0 0.02 0.01 0.01 82 1015.2
20260902123509 56 93 1.0 9.0 0.00 0.00 0.00 82 1015.2
20260902123008 56 118 4.0 14.0 0.00 0.00 0.00 82 1015.1
20260902122503 56 212 2.0 11.0 0.00 0.00 0.00 83 1015.1
20260902121958 56 213 3.0 7.0 0.00 0.00 0.00 84 1015.0
20260902121454 56 158 3.0 9.0 0.00 0.00 0.00 83 1015.1
20260902120948 56 60 3.0 9.0 0.00 0.00 0.00 84 1015.0
20260902120445 55 235 6.0 16.0 0.00 0.00 0.00 85 1015.1
20260902115944 55 123 4.0 14.0 0.00 0.00 0.00 85 1015.0
20260902115440 55 171 5.0 12.0 0.00 0.00 0.00 86 1015.0
20260902114937 55 129 3.0 12.0 0.02 0.00 0.00 85 1014.9
20260902114432 56 132 7.0 11.0 0.02 0.00 0.00 85 1015.1
20260902113927 57 156 4.0 13.0 0.00 0.00 0.00 82 1015.0
20260902113422 57 176 3.0 8.0 0.00 0.00 0.00 83 1015.0
20260902112922 57 133 3.0 13.0 0.00 0.00 0.00 83 1015.1
20260902112418 57 111 5.0 10.0 0.00 0.00 0.00 83 1014.9
20260902111914 57 152 3.0 9.0 0.00 0.00 0.00 83 1015.0
20260902111410 57 156 3.0 11.0 0.00 0.00 0.00 83 1015.0
20260902110906 56 0 2.0 9.0 0.00 0.00 0.00 84 1015.2
20260902110402 57 109 5.0 9.0 0.00 0.00 0.00 84 1014.9
20260902105902 57 148 3.0 4.0 0.00 0.00 0.00 84 1015.0
20260902105357 57 203 5.0 8.0 0.00 0.00 0.00 84 1015.0
20260902104852 57 221 3.0 7.0 0.00 0.00 0.00 84 1014.7
20260902104348 57 198 4.0 9.0 0.00 0.00 0.00 84 1014.9
20260902103847 56 192 4.0 9.0 0.00 0.00 0.00 85 1014.9
20260902103343 57 242 5.0 13.0 0.00 0.00 0.00 85 1014.9
20260902102837 57 205 5.0 8.0 0.00 0.00 0.00 81 1014.9
20260902102336 57 174 4.0 10.0 0.00 0.00 0.00 81 1014.5
20260902101830 58 213 7.0 13.0 0.00 0.00 0.00 80 1014.7
20260902101324 58 131 6.0 12.0 0.00 0.00 0.00 79 1014.8
20260902100818 58 122 7.0 9.0 0.00 0.00 0.00 79 1014.5
20260902100312 58 174 3.0 7.0 0.00 0.00 0.00 79 1014.7
20260902095807 58 152 5.0 10.0 0.00 0.00 0.00 78 1014.7
20260902095306 59 109 8.0 16.0 0.00 0.00 0.00 78 1014.7
20260902094756 59 81 4.0 13.0 0.00 0.00 0.00 77 1014.8
20260902094253 59 164 2.0 9.0 0.00 0.00 0.00 77 1014.7
20260902093752 59 196 3.0 7.0 0.00 0.00 0.00 77 1014.8
20260902093248 59 279 7.0 14.0 0.00 0.00 0.00 77 1014.8
20260902092747 59 64 0.0 8.0 0.00 0.00 0.00 77 1014.8
20260902092242 59 218 5.0 10.0 0.00 0.00 0.00 79 1014.9
20260902091741 59 250 8.0 10.0 0.00 0.00 0.00 79 1014.8
20260902091238 58 237 6.0 12.0 0.00 0.00 0.00 80 1014.8
20260902090734 58 320 5.0 7.0 0.00 0.00 0.00 82 1014.8
20260902090233 58 320 0.0 5.0 0.00 0.00 0.00 83 1014.7
20260902085728 58 273 1.0 4.0 0.00 0.00 0.00 84 1014.7
20260902085223 57 257 2.0 3.0 0.00 0.00 0.00 84 1014.9
20260902084719 57 295 2.0 3.0 0.00 0.00 0.00 84 1014.5
20260902084214 57 64 2.0 3.0 0.00 0.00 0.00 84 1014.7
20260902083709 58 63 2.0 3.0 0.00 0.00 0.00 83 1014.7
20260902083208 58 52 2.0 3.0 0.00 0.00 0.00 83 1014.5
20260902082703 58 60 3.0 5.0 0.00 0.00 0.00 82 1014.5
20260902082200 58 57 2.0 3.0 0.00 0.00 0.00 79 1014.5
20260902081657 59 23 0.0 3.0 0.00 0.00 0.00 78 1014.5
20260902081151 58 6 0.0 2.0 0.00 0.00 0.00 79 1014.5
20260902080646 58 69 2.0 3.0 0.00 0.00 0.00 79 1014.5
20260902080143 58 49 1.0 3.0 0.00 0.00 0.00 79 1014.3
20260902075642 58 17 2.0 3.0 0.00 0.00 0.00 79 1014.3
20260902075133 58 77 2.0 3.0 0.00 0.00 0.00 78 1014.3
20260902074628 59 77 3.0 3.0 0.00 0.00 0.00 78 1014.2
20260902074123 59 242 0.0 1.0 0.00 0.00 0.00 78 1014.4
20260902073618 59 26 2.0 3.0 0.00 0.00 0.00 78 1014.4
20260902073115 59 33 1.0 2.0 0.00 0.00 0.00 78 1014.3
20260902072610 59 110 0.0 1.0 0.00 0.00 0.00 77 1014.3
20260902072106 59 62 0.0 3.0 0.00 0.00 0.00 77 1014.1
20260902071601 59 25 3.0 3.0 0.00 0.00 0.00 77 1014.3
20260902071057 59 39 2.0 2.0 0.00 0.00 0.00 77 1014.4
20260902070553 59 85 2.0 3.0 0.00 0.00 0.00 77 1014.4
20260902070047 59 33 1.0 2.0 0.00 0.00 0.00 77 1014.2
20260902065541 59 48 1.0 2.0 0.00 0.00 0.00 77 1014.5
20260902065036 59 17 0.0 3.0 0.00 0.00 0.00 77 1014.3
20260902064532 59 36 2.0 3.0 0.00 0.00 0.00 77 1014.1
20260902064028 59 80 1.0 3.0 0.00 0.00 0.00 76 1014.3
20260902063527 59 74 2.0 3.0 0.00 0.00 0.00 76 1014.4
20260902063022 60 56 2.0 2.0 0.00 0.00 0.00 75 1014.1
20260902062521 60 39 0.0 2.0 0.00 0.00 0.00 75 1014.3
20260902062016 60 282 0.0 2.0 0.00 0.00 0.00 75 1014.4
20260902061511 60 253 4.0 5.0 0.00 0.00 0.00 75 1014.2
20260902061007 59 278 3.0 4.0 0.00 0.00 0.00 76 1014.3
20260902060503 59 37 0.0 2.0 0.00 0.00 0.00 75 1014.5
20260902055958 59 32 0.0 1.0 0.00 0.00 0.00 75 1014.3
20260902055454 59 154 0.0 2.0 0.00 0.00 0.00 75 1014.5
20260902054949 59 80 1.0 3.0 0.00 0.00 0.00 75 1014.5
20260902054444 60 74 2.0 2.0 0.00 0.00 0.00 75 1014.5
20260902053940 60 142 0.0 1.0 0.00 0.00 0.00 75 1014.5
20260902053435 60 64 1.0 2.0 0.00 0.00 0.00 74 1014.4
20260902052934 60 28 2.0 3.0 0.00 0.00 0.00 74 1014.5
20260902052429 60 52 2.0 3.0 0.00 0.00 0.00 74 1014.8
20260902051925 60 50 0.0 1.0 0.00 0.00 0.00 74 1014.7
20260902051425 60 43 0.0 2.0 0.00 0.00 0.00 74 1014.7
20260902050924 60 341 1.0 2.0 0.00 0.00 0.00 74 1014.8
20260902050423 60 128 1.0 3.0 0.00 0.00 0.00 74 1014.5
20260902045919 60 163 0.0 4.0 0.00 0.00 0.00 73 1014.9
20260902045414 60 329 1.0 3.0 0.00 0.00 0.00 72 1014.5
20260902044910 60 261 0.0 2.0 0.00 0.00 0.00 72 1014.8
20260902044405 60 294 2.0 3.0 0.00 0.00 0.00 72 1014.7
20260902043900 61 252 1.0 5.0 0.00 0.00 0.00 71 1014.9
20260902043355 61 190 3.0 4.0 0.00 0.00 0.00 72 1014.8
20260902042850 61 337 1.0 2.0 0.00 0.00 0.00 71 1014.5
20260902042344 60 309 1.0 3.0 0.00 0.00 0.00 71 1014.7
20260902041839 60 311 3.0 3.0 0.00 0.00 0.00 72 1014.5
20260902041334 60 289 2.0 3.0 0.00 0.00 0.00 72 1014.3
20260902040832 60 66 0.0 3.0 0.00 0.00 0.00 72 1014.3
20260902040328 60 149 0.0 2.0 0.00 0.00 0.00 71 1014.1
20260902035827 60 69 1.0 2.0 0.00 0.00 0.00 71 1013.9
20260902035323 61 38 0.0 1.0 0.00 0.00 0.00 71 1014.1
20260902034821 61 300 1.0 2.0 0.00 0.00 0.00 71 1013.9
20260902034317 61 306 0.0 2.0 0.00 0.00 0.00 70 1013.9
20260902033814 61 306 0.0 2.0 0.00 0.00 0.00 69 1014.0
20260902033310 61 328 0.0 2.0 0.00 0.00 0.00 69 1014.1
20260902032809 61 186 0.0 4.0 0.00 0.00 0.00 69 1014.2
20260902032306 61 205 0.0 4.0 0.00 0.00 0.00 70 1014.2
20260902031804 62 311 1.0 5.0 0.00 0.00 0.00 69 1014.1
20260902031300 61 282 0.0 4.0 0.00 0.00 0.00 69 1014.2
20260902030755 61 242 0.0 3.0 0.00 0.00 0.00 69 1014.2
20260902030250 62 349 0.0 2.0 0.00 0.00 0.00 68 1014.2
20260902025749 62 66 0.0 2.0 0.00 0.00 0.00 68 1014.0
20260902025244 61 121 2.0 2.0 0.00 0.00 0.00 68 1014.0
20260902024739 61 20 1.0 2.0 0.00 0.00 0.00 69 1014.1
20260902024234 61 240 3.0 3.0 0.00 0.00 0.00 69 1013.9
20260902023730 62 299 0.0 2.0 0.00 0.00 0.00 68 1013.9
20260902023225 62 283 3.0 3.0 0.00 0.00 0.00 67 1013.7
20260902022724 62 227 6.0 6.0 0.00 0.00 0.00 66 1014.1
20260902022214 62 257 1.0 5.0 0.00 0.00 0.00 66 1013.8
20260902021710 62 290 4.0 7.0 0.00 0.00 0.00 65 1014.0
20260902021204 63 262 2.0 8.0 0.00 0.00 0.00 65 1013.8
20260902020700 63 252 6.0 9.0 0.00 0.00 0.00 65 1013.6
20260902020156 63 193 5.0 8.0 0.00 0.00 0.00 65 1013.7
20260902015651 63 245 4.0 10.0 0.00 0.00 0.00 64 1013.6
20260902015148 63 290 5.0 8.0 0.00 0.00 0.00 63 1013.7
20260902014643 63 196 5.0 9.0 0.00 0.00 0.00 63 1013.7
20260902014139 63 203 4.0 9.0 0.00 0.00 0.00 62 1013.7
20260902013638 64 230 9.0 10.0 0.00 0.00 0.00 62 1013.7
20260902013134 64 258 4.0 7.0 0.00 0.00 0.00 61 1013.6
20260902012629 64 238 11.0 11.0 0.00 0.00 0.00 60 1013.8
20260902012125 64 183 5.0 8.0 0.00 0.00 0.00 59 1013.6
20260902011620 64 200 3.0 5.0 0.00 0.00 0.00 60 1013.5
20260902011119 64 250 4.0 7.0 0.00 0.00 0.00 59 1013.6
20260902010613 65 222 3.0 6.0 0.00 0.00 0.00 59 1013.6
20260902010109 65 273 3.0 8.0 0.00 0.00 0.00 59 1013.6
20260902005606 66 273 4.0 8.0 0.00 0.00 0.00 57 1013.6
20260902005103 66 281 4.0 7.0 0.00 0.00 0.00 56 1013.6
20260902004602 66 293 3.0 9.0 0.00 0.00 0.00 58 1013.5
20260902004057 65 151 1.0 6.0 0.00 0.00 0.00 59 1013.7
20260902003552 65 168 5.0 7.0 0.00 0.00 0.00 59 1013.9
20260902003048 66 175 4.0 5.0 0.00 0.00 0.00 59 1013.8
20260902002543 65 235 7.0 10.0 0.00 0.00 0.00 60 1013.7
20260902002038 65 285 2.0 11.0 0.00 0.00 0.00 59 1014.0
20260902001533 65 166 2.0 12.0 0.00 0.00 0.00 59 1013.9
20260902001028 66 231 3.0 9.0 0.00 0.00 0.00 58 1013.9
20260902000522 66 280 7.0 10.0 0.00 0.00 0.00 57 1013.9
20260902000018 67 157 2.0 7.0 0.00 0.00 0.00 57 1014.1
20260901235513 65 282 10.0 10.0 0.00 0.00 0.00 59 1014.0
20260901235008 65 174 3.0 8.0 0.00 0.00 0.00 59 1014.1
20260901234507 64 229 4.0 12.0 0.00 0.00 0.00 60 1014.1
20260901234002 64 204 11.0 14.0 0.00 0.00 0.00 59 1014.1
20260901233457 64 249 6.0 12.0 0.00 0.00 0.00 61 1014.2
20260901232953 64 184 2.0 10.0 0.00 0.00 0.00 61 1014.2
20260901232448 63 279 5.0 11.0 0.00 0.00 0.00 64 1014.2
20260901231943 63 239 9.0 14.0 0.00 0.00 0.00 64 1014.4
20260901231439 64 256 6.0 11.0 0.00 0.00 0.00 63 1014.4
20260901230936 64 262 4.0 9.0 0.00 0.00 0.00 63 1014.4
20260901230436 64 180 4.0 7.0 0.00 0.00 0.00 63 1014.5
20260901225931 62 176 4.0 10.0 0.00 0.00 0.00 66 1014.4
20260901225430 62 176 4.0 8.0 0.00 0.00 0.00 67 1014.7
20260901224926 62 247 4.0 7.0 0.00 0.00 0.00 68 1015.0
20260901224421 61 237 4.0 7.0 0.00 0.00 0.00 69 1014.8
20260901223918 61 207 11.0 11.0 0.00 0.00 0.00 68 1015.0
20260901223413 61 193 2.0 7.0 0.00 0.00 0.00 69 1014.8
20260901222908 61 175 6.0 13.0 0.00 0.00 0.00 69 1014.8
20260901222405 61 203 5.0 8.0 0.00 0.00 0.00 69 1014.4
20260901221900 61 209 6.0 9.0 0.00 0.00 0.00 69 1014.8
20260901221356 62 198 2.0 9.0 0.00 0.00 0.00 69 1014.5
20260901220856 61 321 2.0 7.0 0.00 0.00 0.00 69 1014.5
20260901220354 61 157 4.0 6.0 0.00 0.00 0.00 69 1014.8
20260901215854 61 217 5.0 8.0 0.00 0.00 0.00 70 1014.7
20260901215353 62 184 3.0 6.0 0.00 0.00 0.00 68 1014.8
20260901214852 61 218 4.0 7.0 0.00 0.00 0.00 68 1014.8
20260901214351 61 208 3.0 5.0 0.00 0.00 0.00 69 1014.8
20260901213850 61 259 2.0 6.0 0.00 0.00 0.00 69 1014.9
20260901213345 61 200 0.0 5.0 0.00 0.00 0.00 69 1014.7
20260901212840 61 179 5.0 9.0 0.00 0.00 0.00 69 1015.0
20260901212336 60 138 2.0 8.0 0.00 0.00 0.00 70 1015.0
20260901211832 60 166 3.0 4.0 0.00 0.00 0.00 71 1015.0
20260901211327 60 347 1.0 3.0 0.00 0.00 0.00 72 1015.3
20260901210822 60 135 3.0 6.0 0.00 0.00 0.00 72 1015.3
20260901210318 60 182 2.0 5.0 0.00 0.00 0.00 73 1015.3
20260901205814 59 182 3.0 7.0 0.00 0.00 0.00 73 1015.2
20260901205314 60 219 4.0 7.0 0.00 0.00 0.00 73 1015.3
20260901204809 59 273 5.0 10.0 0.00 0.00 0.00 75 1015.4
20260901204306 59 215 6.0 9.0 0.00 0.00 0.00 75 1015.4
20260901203759 59 201 4.0 10.0 0.00 0.00 0.00 75 1015.3
20260901203255 59 284 7.0 10.0 0.00 0.00 0.00 75 1015.4
20260901202753 59 165 4.0 12.0 0.00 0.00 0.00 74 1015.5
20260901202249 59 160 3.0 7.0 0.00 0.00 0.00 74 1015.4
20260901201744 58 241 10.0 13.0 0.00 0.00 0.00 75 1015.5
20260901201238 58 225 5.0 12.0 0.00 0.00 0.00 74 1015.4
20260901200732 59 207 9.0 10.0 0.00 0.00 0.00 74 1015.5
20260901200228 59 189 3.0 12.0 0.00 0.00 0.00 74 1015.4
20260901195726 59 215 4.0 9.0 0.00 0.00 0.00 74 1015.6
20260901195220 59 167 6.0 11.0 0.00 0.00 0.00 73 1015.4
20260901194715 59 280 5.0 7.0 0.00 0.00 0.00 73 1015.5
20260901194204 59 227 4.0 9.0 0.00 0.00 0.00 73 1015.4
20260901193701 58 178 2.0 8.0 0.00 0.00 0.00 74 1015.4
20260901193155 58 342 3.0 11.0 0.00 0.00 0.00 74 1015.6
20260901192655 58 218 8.0 11.0 0.00 0.00 0.00 73 1015.7
20260901192150 58 174 6.0 11.0 0.00 0.00 0.00 73 1015.6
20260901191646 58 262 7.0 15.0 0.00 0.00 0.00 73 1015.6
20260901191142 59 179 7.0 13.0 0.00 0.00 0.00 72 1015.6
20260901190638 59 216 5.0 13.0 0.00 0.00 0.00 71 1015.6
20260901190137 59 219 6.0 13.0 0.00 0.00 0.00 71 1015.5
20260901185636 60 187 5.0 11.0 0.00 0.00 0.00 70 1015.4
20260901185134 59 190 7.0 13.0 0.00 0.00 0.00 70 1015.5
20260901184630 59 166 4.0 10.0 0.00 0.00 0.00 70 1015.4
20260901184125 60 185 4.0 8.0 0.00 0.00 0.00 70 1015.6
20260901183620 59 183 4.0 10.0 0.00 0.00 0.00 70 1015.5
20260901183115 60 188 8.0 11.0 0.00 0.00 0.00 70 1015.3
20260901182612 59 178 6.0 11.0 0.00 0.00 0.00 70 1015.5
20260901182110 59 182 8.0 15.0 0.00 0.00 0.00 70 1015.2
20260901181605 59 280 5.0 16.0 0.00 0.00 0.00 70 1015.3
20260901181104 60 180 10.0 14.0 0.00 0.00 0.00 69 1015.4
20260901180603 60 180 9.0 14.0 0.00 0.00 0.00 69 1015.4
20260901180052 59 206 5.0 15.0 0.00 0.00 0.00 69 1015.4
20260901175545 60 212 9.0 18.0 0.00 0.00 0.00 67 1015.1
20260901175040 60 160 10.0 12.0 0.00 0.00 0.00 66 1014.9
20260901174536 60 204 4.0 12.0 0.00 0.00 0.00 66 1015.0
20260901174032 60 258 4.0 12.0 0.00 0.00 0.00 68 1014.8
20260901173526 60 206 4.0 11.0 0.00 0.00 0.00 68 1014.9
20260901173022 60 212 7.0 11.0 0.00 0.00 0.00 69 1014.9
20260901172517 60 247 3.0 12.0 0.00 0.00 0.00 69 1014.9
20260901172015 60 170 3.0 9.0 0.00 0.00 0.00 69 1014.8
20260901171514 60 283 1.0 7.0 0.00 0.00 0.00 69 1014.7
20260901171014 60 173 3.0 13.0 0.00 0.00 0.00 70 1014.7
20260901170508 59 207 5.0 11.0 0.00 0.00 0.00 71 1014.5
20260901170009 59 177 9.0 13.0 0.00 0.00 0.00 70 1014.5
20260901165502 59 161 6.0 11.0 0.00 0.00 0.00 71 1014.4
20260901164958 59 197 7.0 11.0 0.00 0.00 0.00 72 1014.4
20260901164453 59 183 4.0 13.0 0.00 0.00 0.00 73 1014.4
20260901163948 59 194 8.0 13.0 0.00 0.00 0.00 73 1014.3
20260901163444 59 212 9.0 12.0 0.00 0.00 0.00 72 1014.4
20260901162943 59 222 3.0 9.0 0.00 0.00 0.00 72 1014.4
20260901162438 59 196 3.0 9.0 0.00 0.00 0.00 72 1014.4
20260901161937 59 208 7.0 9.0 0.00 0.00 0.00 72 1014.5
20260901161437 59 177 5.0 9.0 0.00 0.00 0.00 74 1014.4
20260901160932 59 189 3.0 8.0 0.00 0.00 0.00 72 1014.3
20260901160428 59 210 9.0 12.0 0.00 0.00 0.00 72 1014.2
20260901155927 59 236 5.0 8.0 0.00 0.00 0.00 73 1014.2
20260901155421 59 210 4.0 8.0 0.00 0.00 0.00 72 1014.2
20260901154918 59 187 4.0 7.0 0.00 0.00 0.00 72 1014.2
20260901154417 59 201 2.0 9.0 0.00 0.00 0.00 72 1014.1
20260901153912 59 219 5.0 9.0 0.00 0.00 0.00 72 1014.2
20260901153412 59 159 3.0 7.0 0.00 0.00 0.00 73 1014.0
20260901152912 58 227 2.0 9.0 0.00 0.00 0.00 74 1014.0
20260901152407 58 165 7.0 9.0 0.00 0.00 0.00 75 1013.9
20260901151901 58 182 5.0 10.0 0.00 0.00 0.00 75 1013.9
20260901151355 57 162 4.0 9.0 0.00 0.00 0.00 77 1013.7
20260901150855 58 133 4.0 7.0 0.00 0.00 0.00 76 1013.7